Zurück zum Katalog

STARLINK-38294

AktivKommunikationSSO
NORAD 100319·PAYLOAD·🇺🇸 United States

Gestartet Aug 12, 2026 von Vandenberg Space Force Base

Loading…

Nächste Überflüge (nächste 24 Stunden)

TLE

AktuellSource: Space-Track

Epoche: Sep 14, 2026, 20:03 UTC

1 A0319U 26184U   26257.83569096  .00022826  00000-0  63203-3 0  9999
2 A0319  97.2838 123.0556 0001370  94.6746 265.4655 15.36985960  6495

Verfolge STARLINK-38294 in Echtzeit mit AllMySat

Download on the App Store